Regional Weather Roundup
Issued by NWS

Home | Current Version | Previous Version | Text Only | Print | Product List | Glossary On
Versions: 1 2 3 4 5 6 7 8 9 10 11 12 13 14 15 16 17 18 19 20 21 22 23 24 25 26 27 28 29 30 31 32 33 34 35 36 37 38 39 40 41 42 43 44
000
ASUS45 KSLC 030810
RWRUT

UTAH REGIONAL WEATHER ROUNDUP
NATIONAL WEATHER SERVICE SALT LAKE CITY UT
200 AM MDT THU SEP 03 2015

UTZ001>011-023>025-030900-

NORTHERN UTAH

CITY           SKY/WX    TMP DP  RH WIND       PRES   REMARKS
BRIGHAM CITY   CLOUDY    81  29  15 S14G20    29.85R
HILL AFB       MOCLDY    78  38  23 S20       29.90S
LOGAN          LGT RAIN  77  43  29 S12       29.85S
OGDEN          CLOUDY    79  37  22 S22       29.87S
PROVO AIRPORT  MOCLDY    70  41  35 SW5       29.96S
SALT LAKE CITY MOCLDY    80  37  21 SE23G33   29.87R
VERNAL         MOCLDY    63  44  50 W5        30.01F
WENDOVER       PTCLDY    81  27  13 S20       29.83F
HEBER CITY     MOCLDY    72  32  23 S9        30.01F
WEST JORDAN    CLEAR     77  39  25 SE16      29.93S

$$

UTZ012>022-026-027-030900-

SOUTHERN/CENTRAL UTAH

CITY           SKY/WX    TMP DP  RH WIND       PRES   REMARKS
BLANDING       CLOUDY    64  48  57 NW5       30.22F
BRYCE CANYON   PTCLDY    48  37  65 W5        30.25S
CEDAR CITY     PTCLDY    66  35  31 S8        30.08S
DELTA          PTCLDY    71  37  28 S13       29.98S
HANKSVILLE     CLOUDY    70  43  37 CALM      30.00R
MILFORD        PTCLDY    64  38  38 S9        30.02S
MOAB/CYNLANDS  CLEAR     73  45  36 E5        29.98S
PRICE          PTCLDY    64  40  41 NE8       30.06F
ST GEORGE      PTSUNNY   81  37  21 S5        29.94S
KANAB          PTCLDY    59  52  77 CALM      30.14S

$$

REGIONAL REPORTS     COLORADO/ARIZONA

CITY           SKY/WX    TMP DP  RH WIND       PRES   REMARKS
CRAIG, CO      PTCLDY    52  46  80 E3        30.12F
GRAND JUNCTION MOCLDY    70  50  49 SE17      30.02S
RIFLE          MOCLDY    61  53  75 S3        30.09F
MONTROSE       MOCLDY    67  48  50 SE10      30.14F
CORTEZ         CLOUDY    62  57  83 NE5       30.16F
PAGE, AZ       PTCLDY    75  50  41 VRB5      30.03R
GRAND CANYON   CLEAR     49  44  83 CALM      30.23F
KINGMAN        PTCLDY    73  43  33 S10       29.98F
FLAGSTAFF      PTCLDY    48  39  71 CALM      30.27S

$$

REGIONAL REPORTS    NEVADA/IDAHO/WYOMING

CITY           SKY/WX    TMP DP  RH WIND       PRES   REMARKS
LAS VEGAS, NV  PTCLDY    86  45  23 SW7       29.80F
ELY            CLEAR     61  32  33 S15       30.04F
ELKO           CLEAR     69  31  24 SW8       29.91S
POCATELLO, ID  CLEAR     64  43  46 S6        29.79F
BURLEY         CLEAR     61  42  49 W7        29.79R
EVANSTON, WY   PTCLDY    62  33  33 SW15      30.09F
ROCK SPRINGS   PTCLDY    64  38  38 SW10      30.08F
KEMMERER       PTCLDY    55  34  44 CALM      30.10F

$$



USA.gov is the U.S. government's official web portal to all federal, state and local government web resources and services.